Wind_Speed
61 59 57 57 62 60 63 61 57 53 48 47 43 44 44 40 42 44 42 41 42 42 44 45 48 51 54 56 60 64 62 62 63 64 66 67 67 68 67 68 69 71 74
59 55 52 57 59 63 60 61 56 50 48 44 43 43 43 40 39 42 37 48 43 42 41 45 49 53 60 63 64 62 64 67 66 67 67 68 67 68 70 71 74 78 82
49 52 54 60 60 62 61 57 52 49 46 43 41 41 41 39 38 40 43 43 43 44 48 50 54 59 61 63 60 63 67 67 68 69 68 68 70 72 73 77 80 85 91
47 50 50 54 59 61 56 52 50 46 44 40 39 41 33 40 41 41 40 42 44 48 51 54 56 58 59 61 64 66 67 68 68 68 69 71 73 76 80 83 87 94 100
36 36 41 48 51 55 50 47 42 40 40 40 39 45 39 39 47 43 42 44 46 50 57 55 54 58 61 63 64 65 66 66 68 70 72 74 78 83 88 93 98 102 99
31 33 37 39 40 41 42 39 37 38 38 35 35 40 37 40 41 46 45 45 53 56 51 52 57 60 61 63 64 65 66 70 72 75 76 81 86 91 96 101 101 88 64
29 25 28 34 33 38 38 35 36 32 35 41 46 43 36 37 38 44 50 51 53 48 52 56 58 59 61 61 62 66 69 73 77 81 85 89 94 100 99 85 63 53 49
23 19 23 28 33 34 33 34 36 28 37 36 37 39 40 44 45 46 46 46 49 51 54 56 57 57 58 62 66 68 72 76 81 87 93 99 101 88 67 51 47 46 49
21 21 22 23 24 26 26 30 30 28 28 38 38 40 41 42 41 40 44 47 50 52 54 54 55 58 63 65 68 71 76 82 89 95 100 94 70 51 48 45 52 53 52
18 14 16 14 16 20 25 23 25 28 33 30 30 32 30 33 38 44 46 49 50 51 54 55 59 62 64 69 73 76 82 88 94 96 75 52 46 45 49 52 54 57 60
16 4 14 10 20 9 8 21 20 22 20 22 24 27 33 38 41 44 46 48 51 52 54 58 61 65 68 73 78 82 86 91 83 55 40 41 44 48 51 56 60 63 62
9 8 5 9 14 17 14 16 20 16 20 24 30 33 36 39 43 46 48 49 50 53 56 60 64 68 72 78 81 85 87 70 40 36 36 39 43 49 54 58 60 58 54
7 1 1 3 4 4 7 11 15 21 26 29 33 35 39 42 45 45 48 51 54 57 60 64 68 72 76 80 84 81 59 32 32 33 35 40 45 50 55 54 50 48 45
4 2 1 3 5 9 15 20 24 27 30 33 37 39 41 42 44 47 50 54 58 62 65 69 73 75 79 83 73 47 27 28 30 31 35 42 48 52 50 47 41 40 37
3 4 7 9 13 18 22 25 27 30 33 35 37 37 40 43 47 51 55 58 62 66 70 74 77 80 81 64 36 24 24 27 30 32 37 43 48 45 42 39 35 33 32
9 12 15 18 20 22 24 26 29 31 33 34 36 40 43 47 51 56 61 65 69 72 75 78 81 77 53 26 23 22 25 27 28 32 38 42 43 38 34 32 31 29 28
15 18 19 21 22 24 26 29 30 30 32 36 39 42 46 51 57 62 67 71 75 79 81 82 67 36 19 20 20 23 24 25 27 31 36 39 40 34 32 30 28 25 25
18 20 21 22 24 26 29 30 29 32 35 38 42 47 52 58 64 70 75 79 83 83 75 51 22 16 16 18 21 23 25 26 27 30 34 36 37 33 31 29 26 22 22
21 22 23 25 28 29 29 29 32 35 38 42 47 52 58 67 74 79 84 86 76 61 34 12 11 12 16 19 22 24 24 25 26 28 32 33 35 33 30 27 25 25 24
24 24 26 28 29 28 29 32 34 37 41 45 50 58 67 75 82 89 82 64 47 22 4 6 8 12 16 20 24 26 25 24 25 26 30 31 32 32 31 29 27 25 26
24 25 28 29 28 29 32 34 36 39 44 48 55 62 73 80 81 71 54 37 13 1 2 4 9 14 19 23 25 25 24 24 24 24 28 29 30 30 31 31 30 28 25
25 27 29 29 29 32 34 35 37 41 47 53 59 70 72 68 58 44 27 7 6 4 5 8 13 17 21 24 24 23 24 23 23 24 25 29 28 29 30 28 27 26 25
26 29 29 29 32 33 34 34 38 43 50 55 65 68 57 45 35 22 9 8 8 8 10 13 17 19 21 21 21 22 23 24 23 23 24 27 28 27 27 27 27 26 27
28 30 29 31 33 33 33 36 42 47 51 59 67 54 44 38 21 10 7 7 9 14 15 17 19 21 22 22 22 22 23 23 23 23 23 23 25 25 27 28 29 28 28
29 30 30 33 34 34 35 40 46 49 53 64 60 42 38 23 14 9 6 8 15 17 17 20 21 22 23 23 23 22 23 22 22 23 23 23 24 25 26 27 30 30 28
31 30 31 34 34 36 39 44 46 49 56 65 43 37 23 16 12 10 10 14 18 18 20 21 22 24 23 22 23 22 22 23 22 23 24 23 22 23 25 26 28 33 28
Wind_Direction
238 237 237 240 240 238 239 239 246 248 251 254 258 262 264 268 272 272 279 276 282 283 286 289 290 290 291 292 294 297 297 297 298 299 299 298 297 296 295 294 294 294 293
240 238 237 236 232 232 235 235 242 247 250 252 258 261 264 267 260 275 251 277 282 283 287 288 291 294 290 290 292 297 298 299 299 300 298 297 297 296 296 296 295 295 295
239 239 234 231 226 229 226 230 235 243 247 250 256 262 267 268 266 275 270 278 281 284 285 289 294 287 287 292 297 298 298 300 299 298 298 298 298 297 297 297 297 298 299
240 238 235 226 222 221 220 223 230 238 244 249 254 266 247 263 266 272 276 278 283 284 289 290 288 289 295 297 297 298 299 298 298 299 299 298 298 298 297 299 300 301 302
227 231 226 228 222 217 212 221 228 237 244 247 250 243 265 265 277 268 277 281 286 289 288 290 291 293 295 297 298 298 299 299 299 299 300 300 299 300 301 302 303 303 302
213 216 213 216 214 207 213 221 228 238 242 244 239 256 259 267 267 268 282 281 279 284 292 294 293 296 298 298 299 301 301 301 301 301 302 302 303 304 304 304 304 301 298
198 200 200 200 198 206 213 219 228 235 230 246 245 255 264 266 266 268 276 279 286 292 294 294 296 297 298 300 302 302 302 303 303 303 304 305 306 305 305 303 299 299 299
175 197 193 186 195 204 210 219 232 231 254 247 244 262 270 261 264 274 285 291 291 293 294 295 296 299 302 302 302 303 304 303 304 307 308 308 308 306 302 301 300 301 297
153 171 177 185 197 205 214 225 229 245 258 241 249 260 253 264 294 291 289 292 295 297 295 298 303 302 301 302 302 303 305 307 310 309 308 308 305 303 305 304 304 303 300
147 165 175 177 191 238 223 235 246 252 257 250 259 273 292 287 289 291 294 296 297 300 304 303 301 301 303 303 304 306 308 310 309 310 307 307 309 309 309 308 306 304 301
129 172 187 208 219 227 255 244 260 263 285 285 286 286 288 291 294 297 299 302 303 302 302 302 303 303 304 305 307 309 310 309 310 306 306 310 312 311 311 310 309 308 311
154 131 219 224 197 233 270 264 266 287 284 286 286 290 296 300 301 303 303 303 302 302 302 303 305 305 306 308 310 310 312 310 306 309 311 314 315 315 315 315 314 315 316
108 160 188 193 226 265 275 274 279 283 289 295 301 304 304 305 304 304 304 303 303 306 306 305 306 307 308 309 311 313 310 306 311 312 317 319 320 320 319 319 319 320 321
76 49 328 279 282 283 286 293 296 301 304 305 305 306 305 306 306 305 305 306 307 307 306 306 307 307 309 313 313 308 305 310 313 317 321 324 325 326 325 325 326 328 330
18 319 306 305 300 300 303 305 306 305 305 305 306 307 307 307 307 307 307 307 307 307 305 305 307 309 313 312 303 302 307 313 318 321 326 329 330 331 331 333 337 338 341
326 315 312 309 308 305 304 304 306 308 309 309 310 311 311 310 310 310 309 308 306 305 306 308 309 312 309 298 304 308 312 319 322 326 330 332 335 336 339 340 344 344 346
315 314 312 308 308 309 311 311 311 312 314 314 314 313 312 313 312 310 307 306 306 306 308 310 312 305 292 303 309 314 319 322 326 330 333 335 339 339 340 341 346 347 345
310 309 312 314 314 315 316 316 315 315 315 316 316 317 317 315 312 310 309 308 307 310 310 312 303 294 302 308 313 318 322 324 327 330 335 337 341 342 342 342 344 351 352
312 315 316 317 318 318 317 317 317 318 319 318 318 318 316 314 313 312 309 309 312 309 311 294 292 303 310 313 319 326 326 323 326 332 338 339 345 344 342 343 345 345 347
315 316 316 316 318 319 318 318 320 319 318 318 318 319 318 318 316 312 314 313 314 308 273 290 306 310 315 319 325 330 330 326 329 337 341 342 344 345 346 346 345 345 343
314 315 316 318 319 320 319 318 318 319 321 319 321 321 321 320 317 318 318 319 316 60 339 329 321 319 319 322 327 331 332 331 332 337 344 345 345 346 349 348 345 342 338
315 317 319 320 320 319 318 318 320 321 323 324 324 326 324 324 327 331 336 16 68 48 8 334 324 321 321 325 328 331 334 334 333 337 340 345 344 348 350 346 344 343 343
314 318 320 319 317 317 318 321 321 324 329 330 330 329 327 332 342 357 50 65 62 30 355 340 336 331 330 328 329 333 332 334 333 336 337 342 344 345 345 349 351 350 348
315 317 315 315 315 316 317 321 327 330 330 334 333 330 330 332 351 23 49 52 20 2 352 346 339 336 336 336 333 333 333 332 334 334 336 338 342 344 350 354 355 353 352
313 313 312 313 314 314 316 321 323 329 332 336 332 328 330 339 356 7 14 0 353 348 344 339 337 335 334 334 332 332 334 331 331 331 332 337 344 345 348 351 357 358 353
312 310 309 313 313 315 319 320 324 328 334 335 330 328 328 342 351 347 339 341 342 342 339 338 336 337 334 334 334 332 330 331 330 330 329 334 341 346 346 348 352 359 358
Height
5623 5630 5639 5648 5654 5660 5667 5672 5676 5681 5685 5687 5689 5690 5691 5691 5691 5690 5688 5686 5685 5683 5679 5675 5671 5665 5660 5654 5649 5643 5637 5632 5628 5622 5614 5606 5600 5592 5585 5579 5572 5565 5557
5606 5614 5622 5629 5636 5645 5653 5660 5665 5672 5675 5678 5680 5681 5681 5682 5680 5681 5678 5678 5675 5672 5667 5663 5659 5654 5648 5641 5635 5630 5624 5617 5611 5605 5597 5589 5582 5573 5566 5558 5551 5543 5534
5589 5597 5605 5612 5619 5633 5639 5647 5655 5662 5666 5669 5671 5672 5672 5672 5669 5671 5671 5667 5664 5660 5656 5651 5646 5640 5634 5628 5622 5616 5608 5600 5592 5586 5579 5571 5563 5553 5546 5538 5530 5520 5507
5576 5581 5588 5596 5606 5619 5629 5636 5645 5652 5656 5659 5662 5663 5657 5661 5662 5659 5658 5655 5652 5648 5643 5638 5632 5627 5621 5615 5608 5600 5592 5584 5576 5568 5561 5553 5543 5534 5524 5515 5509 5491 5479
5564 5570 5578 5589 5599 5611 5621 5629 5638 5644 5648 5651 5652 5655 5653 5654 5650 5648 5647 5644 5641 5636 5631 5626 5620 5614 5608 5600 5593 5585 5577 5568 5559 5551 5543 5534 5524 5513 5501 5490 5478 5466 5452
5555 5564 5574 5586 5595 5607 5617 5626 5632 5637 5640 5643 5641 5644 5644 5644 5643 5639 5637 5633 5629 5624 5618 5612 5607 5600 5593 5584 5576 5568 5559 5550 5541 5531 5523 5512 5502 5488 5476 5463 5450 5438 5430
5558 5567 5576 5584 5594 5604 5613 5619 5624 5630 5634 5635 5632 5631 5636 5633 5632 5630 5626 5622 5617 5611 5605 5599 5592 5584 5577 5569 5561 5553 5543 5532 5520 5510 5501 5487 5478 5462 5450 5436 5423 5417 5409
5560 5565 5574 5584 5594 5601 5606 5611 5613 5620 5624 5628 5625 5625 5625 5624 5621 5619 5615 5610 5606 5599 5592 5586 5579 5570 5562 5555 5547 5538 5528 5516 5505 5491 5476 5463 5449 5436 5423 5417 5410 5405 5396
5562 5573 5580 5587 5594 5600 5602 5609 5610 5615 5616 5617 5615 5618 5617 5614 5609 5607 5604 5599 5593 5586 5579 5571 5563 5556 5548 5540 5532 5522 5510 5495 5480 5465 5451 5437 5425 5416 5409 5405 5396 5389 5382
5573 5579 5584 5590 5595 5599 5600 5607 5610 5610 5610 5611 5610 5609 5608 5605 5601 5598 5592 5586 5580 5572 5564 5555 5549 5542 5533 5524 5514 5503 5491 5476 5460 5443 5427 5417 5412 5404 5397 5389 5381 5373 5363
5578 5581 5587 5592 5595 5598 5598 5601 5603 5605 5605 5605 5604 5602 5599 5596 5591 5586 5580 5572 5565 5558 5549 5542 5534 5527 5518 5507 5495 5483 5471 5457 5440 5426 5418 5411 5403 5395 5386 5375 5363 5352 5344
5584 5586 5589 5591 5594 5597 5597 5600 5601 5600 5600 5599 5597 5593 5588 5583 5578 5572 5565 5559 5552 5546 5538 5530 5521 5512 5501 5488 5476 5463 5450 5435 5426 5420 5412 5405 5397 5386 5374 5363 5349 5337 5327
5585 5588 5589 5591 5593 5594 5595 5596 5596 5596 5593 5590 5585 5580 5576 5571 5566 5560 5553 5547 5540 5532 5524 5514 5505 5495 5483 5471 5459 5446 5432 5425 5419 5413 5406 5397 5388 5377 5364 5352 5340 5329 5321
5587 5588 5589 5590 5590 5591 5592 5591 5588 5585 5581 5577 5574 5569 5566 5561 5555 5550 5542 5534 5526 5517 5508 5497 5487 5477 5466 5453 5440 5430 5424 5419 5413 5406 5399 5390 5379 5367 5354 5343 5334 5324 5316
5588 5589 5588 5588 5587 5586 5584 5582 5579 5576 5573 5570 5566 5562 5557 5551 5545 5537 5529 5521 5511 5502 5491 5481 5469 5458 5446 5435 5426 5422 5417 5412 5406 5400 5392 5382 5372 5360 5348 5338 5329 5321 5312
5588 5587 5586 5584 5583 5581 5579 5576 5572 5569 5565 5562 5558 5553 5547 5540 5532 5523 5513 5504 5495 5484 5473 5463 5451 5439 5429 5422 5419 5415 5411 5406 5400 5393 5385 5376 5366 5355 5346 5336 5327 5319 5311
5585 5583 5581 5579 5577 5575 5572 5569 5566 5562 5558 5554 5549 5543 5536 5529 5519 5510 5499 5488 5477 5465 5453 5442 5431 5423 5421 5417 5414 5410 5405 5400 5394 5388 5380 5371 5361 5351 5343 5334 5326 5318 5310
5581 5579 5577 5575 5572 5569 5565 5562 5558 5555 5551 5546 5539 5532 5523 5514 5504 5493 5481 5468 5455 5444 5432 5422 5418 5418 5416 5413 5409 5405 5400 5394 5388 5382 5375 5367 5358 5348 5340 5332 5324 5317 5310
5578 5575 5572 5569 5566 5562 5559 5555 5551 5547 5541 5535 5528 5520 5511 5499 5487 5474 5459 5445 5432 5421 5415 5413 5414 5413 5412 5409 5405 5400 5395 5389 5384 5378 5371 5362 5354 5346 5338 5330 5323 5314 5308
5572 5569 5566 5563 5559 5556 5552 5548 5544 5539 5533 5526 5518 5508 5496 5483 5468 5450 5434 5422 5414 5409 5409 5411 5411 5410 5408 5405 5400 5395 5390 5385 5380 5374 5367 5359 5351 5344 5336 5328 5321 5314 5307
5567 5564 5561 5557 5553 5549 5546 5542 5537 5532 5525 5516 5507 5496 5482 5466 5446 5429 5416 5409 5406 5408 5409 5410 5409 5407 5404 5400 5396 5391 5386 5381 5376 5370 5364 5356 5350 5342 5334 5327 5319 5313 5307
5561 5558 5554 5550 5547 5543 5539 5535 5530 5523 5515 5506 5495 5482 5466 5450 5433 5419 5411 5409 5409 5410 5410 5409 5407 5405 5401 5397 5392 5388 5383 5378 5373 5367 5361 5354 5348 5341 5334 5328 5321 5312 5304
5555 5552 5548 5545 5541 5537 5533 5528 5522 5515 5506 5496 5483 5468 5454 5442 5429 5418 5415 5414 5413 5413 5411 5408 5405 5402 5398 5394 5389 5385 5380 5375 5370 5365 5358 5352 5346 5340 5334 5327 5318 5311 5303
5550 5546 5543 5539 5535 5530 5526 5520 5514 5506 5496 5485 5471 5457 5447 5438 5427 5421 5419 5418 5416 5413 5410 5407 5403 5399 5394 5390 5386 5382 5377 5372 5367 5362 5356 5351 5345 5338 5332 5325 5317 5310 5303
5544 5540 5536 5532 5528 5523 5518 5512 5505 5497 5487 5475 5461 5451 5443 5435 5428 5424 5421 5419 5416 5413 5409 5405 5401 5396 5391 5387 5382 5378 5373 5369 5364 5359 5353 5348 5343 5336 5330 5324 5317 5310 5301
5537 5533 5530 5526 5521 5516 5511 5504 5496 5487 5477 5465 5453 5446 5440 5434 5428 5424 5421 5419 5415 5411 5407 5403 5398 5393 5388 5384 5379 5374 5370 5365 5360 5355 5350 5346 5341 5336 5330 5323 5316 5309 5301